Location: Newark
(46.7636°N, 1.8358°W)
Time: 20:12:44
(UTC+00:00)

Vanguard 1 Rocket - Visible Passes

Search period start: 20 October 2019 00:00
Search period end: 30 October 2019 00:00
Orbit: 650 x 4226 km, 34.3° (Epoch: 19 October)

Date Brightness Start Highest point End Pass type
(mag) Time Alt. Az. Time Alt. Az. Time Alt. Az.
20 Oct 11.8 18:08:07 10° W 18:24:13 21° SW 18:38:43 10° S visible
22 Oct 12.0 18:12:42 10° W 18:25:29 16° SW 18:37:32 10° SSW visible
24 Oct 12.3 18:19:49 10° WSW 18:26:45 12° WSW 18:33:34 10° SW visible
25 Oct 12.2 16:58:50 10° W 17:14:16 21° SW 17:29:59 10° S visible
27 Oct 12.4 17:03:46 10° W 17:15:44 16° SW 17:28:08 10° SSW visible
28 Oct 11.0 06:14:09 10° SE 06:14:26 10° SE 06:14:43 10° ESE visible
29 Oct 12.6 17:12:06 10° WSW 17:17:17 11° SW 17:22:35 10° SW visible
